Location: Pinon Hills
(34.4429°N, 117.6403°W)
Time: 23:08:15
(UTC-07:00)

Uosat F - Visible Passes

Search period start: 17 June 2018 00:00
Search period end: 27 June 2018 00:00
Orbit: 751 x 760 km, 98.7° (Epoch: 17 June)

Date Brightness Start Highest point End Pass type
(mag) Time Alt. Az. Time Alt. Az. Time Alt. Az.
18 Jun 13.7 21:02:58 10° SW 21:06:11 17° W 21:09:25 10° NW visible
21 Jun 13.1 20:41:59 10° SSW 20:46:14 27° W 20:50:31 10° NW visible
23 Jun 13.6 21:02:49 10° SW 21:06:05 17° W 21:09:22 10° NW visible
25 Jun 14.1 21:25:15 10° W 21:25:59 10° W 21:26:42 10° W visible
26 Jun 13.1 20:41:51 10° SSW 20:46:07 28° W 20:50:26 10° NW visible
